Temperature
14 13 13 13 13 13 13 13 13 14 14 14 14 14 14 14 14 14 14 14 14 14 14 14 14 14 14 14 15 15 15 15 15 15 15 15 15 15 15 15 15 15 15
14 13 13 13 13 13 13 13 13 13 14 14 14 14 14 14 14 14 14 14 14 14 13 14 14 14 14 14 14 14 14 14 14 14 14 14 14 15 15 15 15 14 15
14 13 13 13 13 13 13 13 13 13 13 13 13 13 13 13 14 14 13 13 13 13 13 13 13 14 14 14 14 14 14 14 14 14 14 14 14 14 14 14 14 14 14
13 13 13 13 13 13 13 13 13 13 13 13 13 13 13 13 13 13 13 13 13 13 13 13 13 13 13 14 14 14 14 14 14 14 13 13 13 14 14 14 14 14 14
13 13 13 13 13 12 13 13 12 12 12 13 13 13 13 13 13 13 13 13 13 13 13 13 13 13 13 13 13 13 14 14 14 13 13 13 13 13 14 14 14 14 14
12 12 12 12 12 12 12 12 12 12 12 12 12 12 12 12 12 13 13 13 12 12 12 12 12 13 13 13 13 13 13 13 13 13 13 13 13 13 13 13 13 13 13
12 12 12 12 12 12 12 12 12 12 12 12 12 12 12 12 12 12 12 12 12 12 12 12 12 12 12 12 13 13 13 13 13 13 13 13 13 13 13 13 13 13 13
12 12 12 12 12 12 12 12 12 12 12 12 12 12 12 12 12 12 12 12 12 12 12 12 12 12 12 12 12 12 12 12 12 12 12 12 12 12 13 13 13 13 13
11 11 11 11 11 11 11 11 11 11 11 11 11 11 11 12 12 11 11 11 11 11 11 11 11 11 11 11 12 12 12 12 12 12 12 12 12 12 12 12 12 12 12
11 11 11 11 11 11 11 11 11 11 11 11 11 11 11 11 11 11 11 11 11 11 11 11 11 11 11 11 11 11 11 11 11 11 11 11 11 12 12 12 12 12 12
11 11 11 11 11 10 10 10 11 11 11 11 11 11 11 11 11 10 10 10 10 10 10 10 10 11 11 11 11 11 11 11 10 10 10 11 11 11 11 11 11 11 11
11 11 11 10 10 10 10 10 10 10 10 10 10 10 10 10 10 10 10 10 10 10 10 10 10 10 10 10 10 10 10 10 10 10 10 10 10 11 11 11 11 11 11
10 10 10 10 10 10 10 10 10 10 10 10 10 10 10 10 9 9 9 9 9 10 10 10 9 9 10 10 10 10 10 10 9 9 9 10 10 10 10 10 10 10 10
10 10 10 10 10 10 10 10 10 9 9 9 9 9 9 9 9 9 9 9 9 9 9 9 9 9 9 9 9 9 9 9 9 9 9 9 9 9 9 10 10 10 10
9 10 10 10 9 9 9 9 9 9 9 9 9 9 9 9 9 9 9 9 9 9 8 8 8 8 8 8 8 8 9 9 9 8 8 8 9 9 9 9 9 9 9
9 9 9 9 9 9 9 9 9 9 9 8 8 8 8 8 8 8 8 8 8 8 8 8 8 8 8 8 8 8 8 8 8 8 8 8 8 8 8 8 8 8 9
9 9 9 9 9 8 8 8 8 8 8 8 8 8 8 8 8 8 8 8 8 7 7 7 7 7 7 7 7 7 7 7 7 7 7 7 7 8 8 8 8 8 8
8 8 8 8 8 8 8 8 8 8 8 8 7 7 7 7 7 7 7 7 7 7 7 7 7 6 6 6 6 6 7 7 7 7 7 7 7 7 7 7 7 7 7
8 8 8 8 8 8 7 7 7 7 7 7 7 7 7 7 7 7 7 7 6 6 6 6 6 6 6 6 6 6 6 6 6 6 6 6 6 7 7 7 7 7 7
7 7 7 7 7 7 7 7 7 7 7 7 6 6 6 6 6 6 6 6 6 6 6 5 5 5 5 5 5 5 5 5 5 5 5 6 6 6 6 6 6 6 6
7 7 7 7 7 7 7 6 6 6 6 6 6 6 6 6 6 6 5 5 5 5 5 5 5 5 5 5 4 4 4 4 4 5 5 5 5 5 5 5 5 6 6
6 6 6 6 6 6 6 6 6 6 6 6 6 6 5 5 5 5 5 5 5 5 5 5 4 4 4 4 4 3 3 3 4 4 4 4 4 4 5 5 5 5 5
5 5 5 6 6 6 6 6 5 5 5 5 5 5 5 5 5 5 5 4 4 4 4 4 4 4 4 4 4 3 3 3 3 3 3 4 4 4 4 4 4 4 4
5 5 5 5 5 5 5 5 5 5 5 5 5 5 5 5 4 4 4 4 4 4 4 4 4 4 4 4 3 3 3 3 3 2 3 3 3 3 3 4 4 4 4
4 4 4 4 4 4 5 5 5 4 5 4 4 4 4 4 4 4 4 4 4 3 3 3 3 3 3 3 3 3 3 3 3 2 2 2 3 3 3 3 3 3 3
3 3 3 3 4 4 4 4 4 4 4 4 4 4 4 4 4 3 3 3 3 3 3 3 3 3 3 2 2 2 2 2 3 3 2 2 2 2 2 2 2 3 3
Wind_Speed
8 9 10 10 11 11 11 11 12 12 12 12 13 13 13 12 12 12 13 13 13 13 14 14 15 15 16 16 17 17 17 17 17 17 16 16 16 16 15 14 14 15 16
10 11 11 11 12 12 12 12 12 12 12 12 12 13 12 12 12 12 13 13 13 13 13 14 14 15 15 16 16 16 16 16 16 15 15 16 16 16 16 16 15 15 16
11 12 13 12 13 12 12 12 12 12 13 12 12 12 12 12 12 12 12 12 13 13 13 14 14 14 15 15 16 16 16 15 14 12 11 13 14 15 15 16 16 16 16
12 12 13 14 13 13 13 13 13 13 13 12 12 12 12 12 12 12 12 12 13 13 14 14 14 14 14 14 15 15 15 14 12 10 11 12 13 15 15 15 15 15 16
11 12 13 14 14 13 13 13 13 13 13 13 13 12 12 12 12 12 12 12 13 13 14 14 14 14 14 14 14 14 14 13 11 11 12 12 12 14 15 15 15 15 16
12 12 14 14 14 13 13 13 13 13 12 12 12 12 12 12 12 12 12 13 13 13 13 14 13 13 14 14 14 14 13 11 10 11 11 11 12 14 14 15 15 15 15
12 11 14 14 14 13 13 13 13 13 12 12 12 12 12 12 12 12 12 12 12 13 13 13 13 13 13 14 14 13 13 11 10 11 11 11 12 14 14 14 14 14 14
11 11 13 14 14 13 14 14 13 13 12 12 12 12 12 12 12 12 12 12 12 12 13 13 13 13 14 14 14 13 12 10 10 11 10 11 13 13 13 13 14 14 14
11 11 11 13 13 13 13 14 13 13 13 13 13 12 12 12 12 11 11 11 12 12 12 12 13 13 14 14 14 13 13 12 10 9 9 10 11 12 12 12 12 13 13
9 9 10 11 12 12 12 13 13 13 13 13 13 13 13 12 12 11 11 11 11 12 12 12 13 13 13 14 13 12 11 10 10 9 9 10 11 11 11 11 11 11 12
8 8 9 10 10 11 11 12 12 11 12 12 12 12 11 9 9 9 10 11 11 12 12 13 12 13 13 13 12 11 9 9 10 9 10 11 11 11 11 11 11 10 11
11 9 8 9 10 10 9 10 9 9 9 9 9 9 8 8 8 9 11 11 11 12 12 12 12 10 9 8 9 8 8 9 9 9 10 12 11 11 11 11 11 10 10
12 10 9 9 9 10 8 8 7 7 8 8 8 8 8 7 7 7 7 8 9 9 9 9 8 7 7 7 7 8 8 8 8 9 11 12 11 11 11 11 11 11 11
11 11 9 9 9 9 8 7 7 6 6 6 7 8 7 6 6 5 5 5 5 5 6 6 6 7 8 8 8 8 8 7 8 8 11 13 12 11 11 10 10 10 10
11 11 10 10 9 9 8 7 7 6 6 7 7 7 7 6 5 5 5 5 5 5 5 5 6 7 7 7 8 8 8 8 8 8 9 13 12 12 11 10 10 9 9
11 11 10 10 10 9 8 7 6 6 7 7 7 7 7 6 5 5 5 5 5 5 5 5 6 6 6 6 7 7 7 7 7 7 7 10 13 12 11 10 10 9 9
11 10 10 10 10 10 8 7 6 6 7 6 7 8 7 6 6 6 5 4 5 5 6 6 6 6 5 5 6 6 6 6 6 7 7 6 8 11 12 11 10 10 9
10 10 10 9 10 9 8 7 6 6 7 6 7 8 8 7 7 6 5 5 6 6 6 5 5 4 4 4 4 4 5 5 6 6 6 6 6 7 10 12 11 10 9
10 10 9 9 10 9 8 7 7 6 6 6 6 7 8 8 8 6 5 5 6 5 5 4 4 4 4 4 3 3 3 4 4 4 5 6 6 6 7 9 11 11 9
9 10 9 9 9 8 7 6 5 6 5 5 5 6 8 8 8 7 6 6 7 5 4 4 5 4 4 4 4 3 3 3 3 3 4 4 5 5 6 6 7 8 10
8 9 10 9 9 8 7 6 6 6 5 5 5 6 8 8 8 7 6 6 6 5 5 6 5 6 4 4 3 2 2 2 2 2 2 2 3 4 4 5 5 5 6
9 9 9 9 9 9 8 6 5 5 4 4 5 6 7 8 8 7 7 6 6 5 6 6 6 4 3 3 2 2 1 1 0 0 0 1 1 2 3 3 4 4 5
9 10 9 9 9 9 9 6 5 4 4 4 4 4 6 7 8 8 8 7 7 6 6 7 7 6 5 3 3 2 2 2 1 1 1 1 0 0 1 2 2 3 3
10 9 9 8 9 9 9 9 10 8 6 6 6 5 6 7 7 8 8 8 7 6 7 7 7 5 6 4 3 1 1 1 2 2 2 2 1 1 1 1 1 2 2
8 8 8 8 8 8 9 10 10 8 6 5 6 7 6 6 6 7 8 7 7 6 7 7 7 6 5 5 4 2 2 2 3 2 3 3 2 2 1 1 1 1 1
6 7 7 8 8 8 8 9 10 10 9 8 8 8 6 5 5 6 7 7 7 7 7 7 7 7 6 6 5 4 3 3 3 3 3 3 3 2 2 2 1 1 1
Wind_Direction
162 160 153 146 136 128 122 117 111 107 104 100 96 93 90 87 85 84 83 81 80 79 77 75 74 72 71 71 70 68 67 67 67 68 70 75 76 76 76 76 79 80 80
157 157 151 145 137 130 124 118 112 108 104 101 97 94 92 89 86 84 83 82 81 80 78 77 76 74 72 72 71 70 69 68 67 68 72 78 75 75 74 71 70 78 80
151 152 151 143 137 132 126 121 115 110 106 103 99 95 94 91 87 85 83 83 81 81 80 77 76 75 73 71 72 71 70 67 65 64 74 79 79 75 76 75 75 77 79
150 150 150 141 138 133 128 123 118 111 106 103 99 96 94 92 88 86 84 83 82 81 80 78 76 76 73 72 72 72 70 66 59 60 70 73 77 75 75 75 76 76 78
149 149 143 141 139 135 130 125 120 114 109 104 100 96 94 92 89 87 85 83 82 81 80 79 78 76 74 73 73 71 69 66 63 67 70 69 72 73 74 74 75 77 77
148 148 142 142 140 137 134 130 124 120 113 108 103 98 94 92 90 88 86 83 83 83 83 82 80 77 76 76 73 70 66 62 70 71 69 69 71 71 74 75 75 77 77
147 145 144 141 139 136 134 132 127 123 118 111 106 101 96 93 91 88 87 85 85 85 85 84 82 79 78 77 73 69 62 56 68 70 68 68 69 69 71 74 75 75 76
145 142 142 140 136 134 133 131 128 125 119 113 108 103 99 95 92 91 89 87 86 86 85 84 82 80 78 76 72 67 59 58 70 70 70 69 66 68 70 71 73 73 74
142 141 140 142 138 134 131 128 124 122 118 115 110 106 101 96 94 93 91 89 89 88 86 85 83 80 77 74 71 66 60 54 64 66 67 68 67 68 68 70 73 73 72
143 144 142 142 141 139 135 126 121 118 115 114 109 105 101 98 95 94 93 92 93 91 87 87 84 81 77 75 71 65 59 58 64 64 65 66 64 67 66 67 70 72 71
151 152 149 146 144 142 139 133 128 123 118 117 111 108 108 108 103 98 91 92 92 91 88 87 84 80 79 75 68 60 57 64 63 61 64 62 62 64 67 66 68 71 72
169 164 158 155 152 147 142 141 139 137 134 129 127 124 117 110 103 100 91 86 88 89 88 85 84 81 79 80 70 60 65 63 61 62 62 61 63 64 65 67 69 71 72
175 169 165 160 156 154 148 145 142 143 140 134 131 129 124 116 112 109 106 95 91 92 89 87 83 77 75 74 70 66 63 60 61 58 57 58 63 63 65 65 67 71 72
179 177 171 165 159 158 155 151 148 145 142 137 137 137 134 125 121 117 111 109 105 97 96 91 85 82 79 75 73 70 65 62 61 59 52 53 57 59 62 63 67 71 73
186 182 177 170 166 161 155 153 151 150 147 145 143 144 144 137 130 124 117 113 109 109 108 103 96 88 81 74 71 71 69 65 62 62 56 50 51 52 55 59 63 69 73
189 186 180 176 172 168 163 158 154 152 151 150 147 150 150 145 139 131 123 118 117 118 115 113 106 96 84 80 75 71 68 65 63 61 59 51 49 49 52 55 56 61 67
191 185 183 178 175 175 170 161 154 154 156 154 152 154 154 152 149 142 133 127 124 124 122 117 109 102 94 87 77 69 66 63 62 56 52 50 49 47 46 48 50 52 58
190 186 183 179 177 176 170 161 154 156 157 157 158 157 158 158 155 147 141 135 134 133 132 127 124 115 104 93 80 68 65 61 57 53 52 51 48 44 44 43 44 44 49
191 187 182 180 179 176 167 158 154 155 155 156 163 162 162 163 162 155 147 142 143 138 135 131 131 128 119 102 86 68 61 57 54 56 55 52 51 46 44 43 42 39 41
191 187 183 180 177 170 160 152 150 153 155 157 165 170 167 167 166 157 149 151 149 145 144 142 136 128 123 116 98 74 56 56 54 53 51 52 50 45 42 39 38 35 36
191 188 185 182 178 170 168 168 170 173 170 168 169 172 173 171 168 161 154 156 160 159 156 152 142 134 130 132 118 91 62 50 55 50 45 51 53 45 44 40 36 32 32
197 193 189 187 183 180 178 176 177 170 173 169 168 171 176 173 172 168 163 166 168 161 158 158 153 152 154 170 167 157 173 192 147 18 24 30 44 42 44 38 35 31 29
201 198 194 190 186 184 177 164 152 150 154 167 173 176 178 176 177 174 173 172 175 174 172 173 173 170 170 182 202 208 205 212 205 190 227 239 290 348 30 27 25 25 29
204 200 194 190 187 186 180 175 173 182 186 191 186 183 181 179 177 179 177 178 179 182 181 183 185 183 177 182 194 249 265 210 212 204 203 217 248 273 306 2 5 10 24
203 197 193 188 188 187 187 185 184 189 187 179 178 181 182 181 179 182 181 183 185 187 187 188 188 189 193 195 196 198 197 207 225 229 230 221 230 238 256 288 300 335 354
201 194 190 188 191 190 191 190 192 190 183 179 182 184 185 183 184 188 186 188 190 191 192 193 193 196 201 204 203 204 206 211 214 218 234 237 236 234 240 250 261 274 309
Height
1523 1525 1527 1529 1531 1533 1534 1535 1536 1536 1537 1538 1538 1539 1539 1539 1540 1540 1540 1540 1540 1540 1540 1540 1540 1540 1540 1540 1540 1540 1540 1540 1540 1540 1540 1540 1541 1541 1541 1541 1542 1542 1542
1522 1525 1527 1529 1531 1533 1534 1535 1536 1537 1538 1538 1539 1539 1540 1540 1540 1541 1541 1541 1541 1541 1541 1541 1541 1541 1541 1541 1541 1541 1541 1542 1542 1542 1542 1543 1543 1543 1543 1543 1543 1544 1544
1522 1524 1527 1529 1531 1533 1534 1535 1536 1537 1538 1539 1540 1540 1541 1541 1541 1541 1541 1542 1542 1542 1542 1542 1542 1542 1542 1543 1543 1543 1543 1543 1544 1544 1544 1545 1545 1545 1545 1545 1545 1545 1546
1522 1524 1527 1529 1531 1533 1534 1536 1537 1538 1539 1539 1540 1541 1541 1542 1542 1542 1542 1542 1542 1542 1543 1543 1543 1543 1543 1544 1544 1544 1545 1545 1545 1546 1547 1547 1547 1547 1547 1547 1547 1547 1547
1522 1524 1527 1529 1531 1533 1534 1536 1537 1538 1539 1540 1541 1541 1542 1542 1542 1543 1543 1543 1543 1543 1543 1543 1544 1544 1544 1545 1545 1545 1546 1546 1547 1547 1548 1548 1548 1548 1548 1548 1549 1549 1549
1522 1524 1526 1529 1531 1533 1534 1535 1537 1538 1539 1540 1541 1541 1542 1542 1543 1543 1543 1543 1543 1543 1544 1544 1544 1544 1545 1545 1546 1546 1547 1547 1548 1548 1549 1549 1549 1549 1550 1550 1550 1550 1550
1522 1524 1526 1529 1531 1533 1534 1535 1537 1538 1539 1540 1541 1541 1542 1542 1543 1543 1543 1543 1544 1544 1544 1544 1545 1545 1546 1546 1546 1547 1548 1548 1549 1549 1549 1550 1550 1550 1551 1551 1551 1551 1551
1521 1524 1526 1528 1530 1532 1534 1535 1536 1538 1539 1540 1541 1541 1542 1542 1543 1543 1543 1544 1544 1544 1544 1545 1545 1546 1546 1546 1547 1547 1548 1549 1550 1550 1550 1551 1551 1551 1551 1551 1552 1552 1552
1521 1523 1526 1528 1530 1532 1534 1535 1536 1537 1539 1539 1540 1541 1542 1542 1542 1543 1543 1544 1544 1544 1545 1545 1545 1546 1546 1547 1547 1548 1549 1549 1550 1550 1551 1551 1551 1552 1552 1552 1552 1552 1552
1520 1523 1525 1527 1529 1531 1533 1534 1536 1537 1538 1539 1540 1540 1541 1542 1542 1543 1543 1544 1544 1544 1545 1545 1546 1546 1546 1547 1548 1548 1549 1550 1550 1551 1551 1551 1552 1552 1552 1552 1552 1553 1553
1519 1521 1524 1526 1528 1530 1532 1533 1535 1536 1537 1538 1539 1540 1541 1541 1542 1542 1543 1544 1544 1544 1545 1545 1546 1546 1547 1547 1548 1549 1549 1550 1550 1551 1551 1551 1552 1552 1552 1552 1552 1552 1553
1517 1519 1521 1524 1526 1528 1530 1532 1533 1535 1536 1537 1538 1539 1540 1540 1541 1542 1542 1543 1544 1544 1544 1545 1546 1546 1547 1547 1548 1549 1550 1550 1550 1551 1551 1551 1552 1552 1551 1552 1552 1552 1552
1514 1517 1519 1522 1524 1526 1528 1530 1531 1533 1534 1535 1536 1537 1538 1539 1540 1541 1542 1542 1543 1544 1544 1545 1545 1546 1547 1547 1548 1549 1549 1550 1550 1551 1551 1551 1552 1551 1551 1552 1552 1552 1552
1512 1514 1517 1519 1521 1524 1526 1528 1529 1531 1532 1533 1534 1536 1537 1538 1539 1540 1541 1542 1542 1543 1544 1544 1545 1546 1546 1547 1547 1548 1549 1549 1550 1550 1551 1551 1551 1551 1551 1551 1551 1552 1552
1509 1512 1514 1516 1519 1521 1523 1525 1527 1528 1530 1531 1533 1534 1535 1536 1537 1539 1540 1540 1541 1542 1543 1543 1544 1545 1545 1546 1547 1547 1548 1548 1549 1550 1550 1550 1550 1551 1551 1551 1552 1551 1552
1506 1509 1511 1513 1516 1518 1520 1522 1524 1526 1528 1529 1531 1532 1534 1535 1536 1537 1538 1539 1540 1541 1542 1542 1543 1544 1544 1545 1545 1546 1547 1547 1548 1549 1549 1549 1550 1550 1550 1551 1551 1551 1551
1503 1505 1508 1510 1513 1515 1517 1519 1521 1523 1525 1527 1528 1530 1532 1533 1534 1535 1536 1537 1538 1539 1540 1541 1542 1543 1543 1544 1544 1545 1545 1546 1547 1547 1548 1548 1549 1549 1549 1549 1550 1550 1550
1500 1503 1505 1507 1509 1512 1514 1516 1518 1520 1522 1524 1526 1528 1529 1531 1532 1533 1534 1535 1537 1538 1539 1539 1540 1541 1542 1543 1543 1544 1544 1545 1545 1546 1546 1547 1547 1548 1548 1548 1548 1549 1549
1497 1499 1501 1503 1506 1508 1511 1513 1515 1517 1519 1521 1523 1525 1526 1528 1530 1531 1532 1533 1534 1536 1537 1538 1539 1540 1540 1541 1542 1542 1543 1543 1544 1544 1545 1545 1545 1546 1546 1546 1547 1547 1547
1493 1495 1497 1500 1502 1505 1507 1510 1512 1514 1516 1518 1520 1522 1524 1525 1527 1528 1529 1531 1532 1533 1534 1536 1537 1538 1539 1539 1540 1541 1541 1542 1542 1542 1543 1543 1544 1544 1545 1545 1545 1545 1545
1488 1490 1492 1495 1497 1500 1503 1505 1507 1510 1512 1515 1517 1519 1520 1522 1524 1525 1527 1528 1529 1531 1532 1533 1534 1535 1537 1538 1538 1539 1540 1540 1540 1541 1541 1542 1542 1542 1543 1543 1543 1543 1543
1483 1485 1488 1490 1493 1496 1499 1501 1504 1506 1509 1511 1513 1515 1517 1519 1520 1522 1523 1525 1526 1528 1529 1531 1532 1533 1534 1536 1537 1538 1539 1540 1539 1539 1539 1540 1540 1541 1541 1541 1541 1541 1541
1479 1481 1483 1485 1488 1491 1494 1497 1500 1503 1505 1507 1509 1511 1513 1515 1517 1518 1520 1522 1523 1525 1526 1528 1529 1531 1531 1533 1535 1537 1537 1537 1537 1537 1537 1537 1538 1538 1538 1539 1539 1539 1539
1475 1477 1479 1482 1484 1487 1490 1492 1495 1497 1499 1502 1504 1507 1509 1511 1513 1515 1516 1518 1520 1521 1523 1525 1526 1528 1529 1530 1532 1533 1534 1534 1535 1534 1535 1535 1535 1536 1536 1536 1536 1536 1536
1471 1473 1476 1478 1480 1483 1485 1488 1491 1493 1496 1498 1501 1503 1505 1507 1509 1511 1513 1515 1516 1518 1519 1521 1523 1524 1526 1527 1528 1530 1530 1531 1532 1532 1532 1532 1533 1533 1533 1533 1533 1534 1533
1467 1469 1472 1474 1476 1478 1481 1483 1486 1489 1491 1494 1496 1498 1500 1502 1504 1506 1508 1510 1512 1514 1515 1517 1519 1521 1522 1524 1525 1526 1528 1528 1529 1529 1529 1529 1530 1530 1530 1530 1530 1530 1530